DateTimeUTC,F1_A11,F1_S11,BsB_S11,BsG_S11,BsR_S11,BbsB_S11,BbsG_S11,BbsR_S11,BaB_A11,BaG_A11,BaR_A11,T_S11,U_S11,P_S11,T1_A11
2020-03-30T00:00:00Z,00040380,20000600,,,,,,,,,,23.2,03.3,0638.7,30.9
2020-03-30T00:01:00Z,00040380,20000600,,,,,,,,,,23.2,03.3,0638.7,30.9
2020-03-30T00:02:00Z,00040380,20000600,,,,,,,,,,23.2,03.3,0638.7,30.9
2020-03-30T00:03:00Z,00040380,60000600,,,,,,,,,,23.2,03.3,0638.7,30.9
2020-03-30T00:04:00Z,00040380,40000600,0000.58,0000.16,0000.78,0000.85,0000.35,0000.51,0000.19,-000.02,0000.00,23.1,03.4,0639.5,30.9
2020-03-30T00:05:00Z,00040380,00000600,0000.10,-000.12,0000.25,0000.17,0000.13,-000.01,-000.11,0000.03,-000.13,23.1,03.4,0639.7,30.9
2020-03-30T00:06:00Z,00040380,00000600,0000.79,0000.22,-000.15,0000.04,0000.39,0000.02,0000.16,0000.01,0000.13,23.1,03.4,0639.6,30.9
2020-03-30T00:07:00Z,00040380,00000600,0001.06,0000.07,-000.03,0000.21,0000.01,0000.04,0000.08,-000.08,0000.03,23.1,03.4,0639.7,30.9
2020-03-30T00:08:00Z,00040380,00000600,0000.26,0000.23,0000.08,0000.69,-000.24,0000.22,-000.03,0000.17,-000.01,23.1,03.4,0639.5,30.9
2020-03-30T00:09:00Z,00040380,00000600,-000.64,0000.34,0000.02,0000.99,0000.23,0000.55,0000.06,0000.01,-000.08,23.1,03.4,0639.6,30.9
2020-03-30T00:10:00Z,00040380,00000600,0001.68,0000.45,-000.37,0000.14,-000.04,0000.02,-000.03,-000.14,0000.20,23.1,03.4,0639.7,30.9
2020-03-30T00:11:00Z,00040380,00000600,0000.35,0000.17,-000.18,0001.14,-000.10,0000.02,-000.05,0000.16,-000.13,23.0,03.5,0639.6,30.9
2020-03-30T00:12:00Z,00040380,00000600,0000.94,-000.02,0000.13,0001.19,0000.30,-000.05,-000.05,-000.03,0000.04,23.0,03.4,0639.7,30.9
2020-03-30T00:13:00Z,00040380,00000600,0000.40,0000.25,0000.11,-000.40,-000.18,0000.33,0000.12,0000.08,0000.12,23.0,03.4,0639.6,30.9
2020-03-30T00:14:00Z,00040380,00000600,0000.37,0000.23,0000.21,0000.77,0000.42,0000.31,-000.04,-000.14,-000.09,23.0,03.4,0639.6,30.9
2020-03-30T00:15:00Z,00040380,00000600,0000.10,-000.04,0000.06,0000.45,-000.08,0000.01,0000.10,0000.25,0000.12,23.0,03.4,0639.7,30.9
2020-03-30T00:16:00Z,00040380,00000600,0001.04,0000.15,-000.11,0000.16,0000.07,0000.13,-000.05,-000.18,-000.01,23.0,03.4,0639.6,30.9
2020-03-30T00:17:00Z,00040380,00000600,0000.61,0000.43,-000.07,0000.12,-000.08,-000.37,0000.10,0000.12,0000.10,23.0,03.4,0639.9,30.9
2020-03-30T00:18:00Z,00040380,00000600,0000.99,0000.17,0000.14,0000.94,-000.25,0000.13,0000.11,0000.02,-000.09,23.0,03.3,0639.7,30.9
2020-03-30T00:19:00Z,00040380,00000600,0000.84,0000.37,-000.03,0000.00,-000.20,-000.05,-000.12,0000.03,-000.03,23.0,03.4,0639.6,30.9
2020-03-30T00:20:00Z,00040380,00000600,0000.51,0000.42,0000.27,0000.11,-000.36,0000.12,0000.10,0000.05,0000.12,23.0,03.4,0639.5,30.9
2020-03-30T00:21:00Z,00040380,00000600,0000.95,0000.13,0000.21,0000.71,-000.12,0000.46,-000.13,-000.10,-000.11,23.0,03.4,0639.6,30.9
2020-03-30T00:22:00Z,00040380,00000600,0000.90,-000.13,-000.34,0001.03,-000.09,0000.19,-000.01,0000.03,0000.06,23.0,03.3,0639.6,30.9
2020-03-30T00:23:00Z,00040380,00000600,0000.28,-000.22,0000.98,0000.36,-000.05,0000.24,-000.04,0000.07,0000.04,23.0,03.3,0639.6,30.9
2020-03-30T00:24:00Z,00040380,00000600,0000.34,-000.04,-000.19,0000.18,0000.01,0000.47,0000.16,-000.12,0000.07,23.0,03.4,0639.6,30.9
2020-03-30T00:25:00Z,00040380,00000600,0000.26,0000.39,0000.38,0000.84,-000.08,0000.05,-000.01,0000.30,0000.06,23.0,03.4,0639.3,30.9
2020-03-30T00:26:00Z,00040380,00000600,0000.45,0000.43,-000.11,0001.07,-000.13,-000.32,-000.05,-000.07,-000.02,23.0,03.4,0639.7,30.9
2020-03-30T00:27:00Z,00040380,00000600,0000.62,0000.07,0000.26,0000.55,-000.45,-000.52,0000.13,-000.08,-000.05,23.0,03.4,0639.4,30.9
2020-03-30T00:28:00Z,00040380,00000600,0001.34,0000.17,0000.10,0000.12,0000.03,-000.25,-000.09,0000.07,-000.04,23.0,03.4,0639.5,30.9
2020-03-30T00:29:00Z,00040380,00000600,0000.71,0000.53,0000.44,0000.87,0000.20,0000.08,0000.07,0000.00,0000.07,23.0,03.3,0639.4,30.9
2020-03-30T00:30:00Z,00040380,00000600,0000.38,-000.22,-000.15,0000.40,0000.25,-000.13,0000.01,0000.05,-000.05,23.0,03.3,0639.7,30.9
2020-03-30T00:31:00Z,00040380,00000600,0000.67,-000.02,-000.28,0000.72,-000.10,0000.22,-000.11,-000.09,0000.12,23.0,03.3,0639.5,30.9
2020-03-30T00:32:00Z,00040380,00000600,-000.05,-000.17,0000.59,0000.75,0000.10,0000.37,0000.11,0000.21,0000.10,23.0,03.3,0639.3,30.9
2020-03-30T00:33:00Z,00040380,00000600,0000.33,0000.02,-000.13,0000.55,-000.02,-000.12,0000.06,-000.18,-000.11,23.0,03.4,0639.3,30.9
2020-03-30T00:34:00Z,00040380,00000600,0000.03,-000.02,0000.63,0000.45,0000.08,0000.34,0000.10,0000.14,-000.07,22.9,03.4,0639.4,30.9
2020-03-30T00:35:00Z,00040380,00000600,0000.98,0000.49,0000.06,0000.15,0000.01,0000.12,-000.00,-000.06,0000.09,22.9,03.4,0639.4,30.9
2020-03-30T00:36:00Z,00040380,00000600,0000.28,0000.32,0000.10,0000.35,-000.00,0000.01,-000.14,-000.08,-000.06,22.9,03.3,0639.4,30.9
2020-03-30T00:37:00Z,00040380,00000600,0001.32,0000.21,-000.08,0000.39,0000.30,-000.03,0000.14,0000.29,0000.05,22.9,03.3,0639.4,30.9
2020-03-30T00:38:00Z,00040380,00000600,0001.10,0000.11,-000.16,0001.33,0000.16,-000.10,0000.03,-000.15,0000.12,22.9,03.3,0639.5,30.9
2020-03-30T00:39:00Z,00040380,00000600,0000.92,0000.56,-000.38,0000.75,-000.28,0000.18,0000.08,0000.07,0000.11,22.9,03.3,0639.4,30.9
2020-03-30T00:40:00Z,00040380,00000600,0000.57,-000.00,-000.09,0000.90,0000.10,0000.13,-000.09,-000.01,-000.10,22.9,03.3,0639.6,30.9
2020-03-30T00:41:00Z,00040380,00000600,0001.11,0000.35,0000.10,0000.51,-000.11,0000.08,-000.03,0000.05,0000.11,22.9,03.4,0639.6,30.9
2020-03-30T00:42:00Z,00040380,00000600,0000.95,0000.06,0000.37,0001.50,-000.43,-000.00,0000.13,0000.08,0000.01,22.9,03.3,0639.5,30.9
2020-03-30T00:43:00Z,00040380,00000600,0001.64,0000.42,-000.05,0000.40,-000.12,-000.06,-000.16,0000.03,0000.06,23.0,03.4,0639.7,30.9
2020-03-30T00:44:00Z,00040380,00000600,0000.35,0000.27,-000.13,-000.23,-000.04,-000.11,-000.06,-000.19,-000.19,23.0,03.3,0639.9,30.9
2020-03-30T00:45:00Z,00040380,00000600,-000.31,-000.10,-000.20,0000.45,-000.20,0000.39,-000.37,-000.34,-000.35,23.0,03.2,0640.2,30.9
2020-03-30T00:46:00Z,00040380,00000600,-000.54,-000.54,0000.18,0000.37,-000.52,0000.17,-000.19,-000.09,0000.11,23.0,03.0,0640.3,30.9
2020-03-30T00:47:00Z,00040380,00000600,0000.53,0000.20,-000.06,0000.51,0000.24,0000.08,-000.07,-000.25,-000.22,23.0,03.0,0640.3,30.9
2020-03-30T00:48:00Z,00040380,00000600,0001.11,0000.54,-000.29,0000.37,-000.13,0000.05,-000.21,0000.08,0000.01,23.0,02.9,0640.4,30.9
2020-03-30T00:49:00Z,00040380,00000600,-000.06,0000.42,-000.24,-000.12,0000.12,0000.14,0000.20,-000.01,-000.06,23.0,02.9,0640.5,30.9
2020-03-30T00:50:00Z,00040380,00000600,0001.18,0000.47,0000.25,0000.42,0000.12,-000.06,-000.20,-000.03,-000.05,23.0,02.9,0640.4,30.9
2020-03-30T00:51:00Z,00040380,00000600,0000.31,-000.02,0000.34,-000.01,-000.04,-000.17,-000.02,-000.06,0000.05,23.0,02.9,0640.4,30.9
2020-03-30T00:52:00Z,00040380,00000600,0000.57,-000.37,-000.15,0000.40,0000.06,-000.07,-000.03,-000.21,-000.04,23.0,02.9,0640.5,31.0
2020-03-30T00:53:00Z,00040380,00000600,0000.31,0000.19,0000.36,0000.76,-000.32,0000.12,0000.01,0000.22,-000.04,23.0,02.8,0640.4,31.0
2020-03-30T00:54:00Z,00040380,00000600,0001.81,0000.48,0000.22,0000.17,0000.03,-000.05,-000.09,-000.14,-000.05,23.0,02.8,0640.5,31.0
2020-03-30T00:55:00Z,00040380,00000600,0001.00,0000.29,0000.17,0000.24,-000.13,0000.12,0000.00,0000.03,0000.01,23.1,02.7,0640.4,31.0
2020-03-30T00:56:00Z,00040380,00000600,0000.55,-000.18,0000.04,0000.27,0000.39,-000.07,-000.09,0000.05,-000.04,23.1,02.8,0640.4,31.0
2020-03-30T00:57:00Z,00040380,40000600,,,,,,,,,,23.1,02.8,0640.5,31.0
2020-03-30T00:58:00Z,00040380,60000600,,,,,,,,,,23.2,02.8,0639.6,31.0
2020-03-30T00:59:00Z,00040380,20000600,,,,,,,,,,23.3,02.7,0639.6,31.0
2020-03-30T01:00:00Z,00040380,20000600,,,,,,,,,,23.3,02.6,0639.7,31.0
2020-03-30T01:01:00Z,00040380,20000600,,,,,,,,,,23.3,02.6,0639.7,31.0
2020-03-30T01:02:00Z,00040380,20000600,,,,,,,,,,23.3,02.6,0639.7,31.0
2020-03-30T01:03:00Z,00040380,60000600,,,,,,,,,,23.3,02.6,0639.7,31.0
2020-03-30T01:04:00Z,00040380,40000600,0000.50,-000.02,0000.20,0000.28,-000.56,-000.15,0000.08,-000.08,0000.04,23.2,02.7,0640.5,31.0
2020-03-30T01:05:00Z,00040380,00000600,0000.60,-000.34,0000.27,-000.07,0000.11,0000.40,0000.02,0000.07,0000.10,23.2,02.6,0640.6,31.0
2020-03-30T01:06:00Z,00040380,00000600,-000.24,0000.09,0000.59,-000.31,-000.02,0000.30,-000.04,-000.03,-000.12,23.2,02.6,0640.6,31.0
2020-03-30T01:07:00Z,00040380,00000600,-000.19,-000.01,0000.57,-000.28,-000.07,0000.40,0000.07,-000.01,0000.02,23.2,02.6,0640.6,31.0
2020-03-30T01:08:00Z,00040380,00000600,0000.03,0000.07,0000.22,0000.06,0000.05,0000.11,-000.13,-000.06,0000.02,23.3,02.7,0640.6,31.0
2020-03-30T01:09:00Z,00040380,00000600,0000.30,0000.06,0000.61,0000.02,-000.02,0000.25,-000.01,0000.08,-000.00,23.3,02.5,0640.6,31.0
2020-03-30T01:10:00Z,00040380,00000600,0000.03,-000.22,0000.09,0000.13,-000.10,0000.17,0000.15,0000.04,-000.00,23.3,02.6,0640.5,31.0
2020-03-30T01:11:00Z,00040380,00000600,0001.02,-000.69,0000.09,-000.16,-000.02,0000.10,-000.08,-000.06,0000.04,23.3,02.6,0640.5,31.0
2020-03-30T01:12:00Z,00040380,00000600,-000.04,-000.49,-000.19,-000.38,-000.18,0000.10,-000.07,-000.14,-000.11,23.3,02.6,0640.6,31.0
2020-03-30T01:13:00Z,00040380,00000600,-001.23,0000.21,0000.49,0000.10,0000.16,0000.09,0000.05,-000.02,0000.06,23.3,02.5,0640.6,31.0
2020-03-30T01:14:00Z,00040380,00000600,-000.89,0000.13,0000.36,-000.90,0000.13,0000.12,0000.02,-000.02,-000.08,23.3,02.5,0640.6,31.0
2020-03-30T01:15:00Z,00040380,00000600,-000.49,-000.43,0000.37,-000.67,-000.24,-000.05,-000.05,0000.08,-000.00,23.3,02.5,0640.7,31.0
2020-03-30T01:16:00Z,00040380,00000600,0000.67,-000.68,0000.00,-000.01,0000.11,-000.06,-000.10,0000.03,-000.01,23.3,02.5,0640.7,31.0
2020-03-30T01:17:00Z,00040380,00000600,0001.61,0000.10,0000.38,-000.02,-000.27,0000.22,0000.04,-000.16,-000.10,23.3,02.5,0640.8,31.0
2020-03-30T01:18:00Z,00040380,00000600,0000.29,-000.21,0000.30,-000.35,0000.26,-000.04,0000.05,0000.01,0000.14,23.4,02.4,0640.7,31.0
2020-03-30T01:19:00Z,00040380,00000600,-000.16,-000.16,-000.16,-000.13,-000.14,-000.20,-000.22,-000.00,-000.09,23.4,02.5,0640.7,31.0
2020-03-30T01:20:00Z,00040380,00000600,-000.13,-000.14,0000.37,0000.10,-000.06,0000.03,0000.12,0000.22,0000.06,23.3,02.5,0640.7,31.0
2020-03-30T01:21:00Z,00040380,00000600,-000.41,-000.28,0000.19,-000.12,0000.17,-000.05,0000.12,-000.07,-000.08,23.4,02.5,0640.7,31.0
2020-03-30T01:22:00Z,00040380,00000600,-000.20,0000.17,0000.45,0000.68,0000.10,0000.51,-000.15,-000.05,0000.04,23.4,02.4,0640.7,31.0
2020-03-30T01:23:00Z,00040380,00000600,-000.43,-000.65,-000.27,0000.35,0000.20,0000.11,0000.09,-000.06,0000.00,23.4,02.5,0640.8,31.0
2020-03-30T01:24:00Z,00040380,00000600,0000.03,0000.31,0000.53,-000.16,0000.25,-000.04,-000.15,-000.01,-000.13,23.4,02.4,0640.8,31.0
2020-03-30T01:25:00Z,00040380,00000600,-000.29,0000.09,0000.20,0000.07,0000.20,0000.58,0000.10,-000.13,0000.17,23.4,02.4,0640.7,31.0
2020-03-30T01:26:00Z,00040380,00000600,-000.93,-000.09,-000.02,-000.05,0000.35,0000.51,-000.05,0000.12,-000.08,23.4,02.4,0640.7,31.0
2020-03-30T01:27:00Z,00040380,00000600,0000.42,-000.11,0000.16,0000.13,0000.20,0000.51,-000.02,0000.06,-000.04,23.4,02.4,0640.8,31.0
2020-03-30T01:28:00Z,00040380,00000600,0000.73,-000.02,0000.11,-000.29,0000.18,-000.05,0000.02,0000.00,0000.02,23.4,02.4,0640.7,31.0
2020-03-30T01:29:00Z,00040380,00000600,0000.66,-000.00,0000.09,-000.40,-000.56,-000.36,0000.12,0000.04,0000.03,23.4,02.4,0640.7,31.0
2020-03-30T01:30:00Z,00040380,00000600,-000.47,0000.27,-000.09,-000.37,0000.28,-000.05,-000.10,-000.01,0000.10,23.4,02.4,0640.7,31.0
2020-03-30T01:31:00Z,00040380,00000600,0000.13,0000.26,0000.58,0000.00,-000.02,-000.12,0000.12,0000.01,-000.16,23.4,02.3,0640.7,31.0
2020-03-30T01:32:00Z,00040380,00000600,-000.13,0000.02,0000.39,0000.72,-000.08,0000.05,-000.11,-000.06,-000.04,23.4,02.4,0640.6,31.0
2020-03-30T01:33:00Z,00040380,00000600,-000.66,0000.09,0000.11,-000.20,-000.05,0000.15,0000.08,0000.05,0000.13,23.4,02.4,0640.7,31.0
2020-03-30T01:34:00Z,00040380,00000600,-000.44,-000.18,-000.28,-000.78,0000.36,-000.08,-000.11,-000.02,0000.05,23.4,02.4,0640.6,31.0
2020-03-30T01:35:00Z,00040380,00000600,0000.08,0000.26,0000.09,-000.52,-000.25,0000.16,0000.09,0000.08,-000.12,23.4,02.4,0640.6,31.0
2020-03-30T01:36:00Z,00040380,00000600,-001.07,0000.21,0000.17,-000.16,-000.03,-000.35,-000.03,0000.00,-000.04,23.4,02.4,0640.7,31.0
2020-03-30T01:37:00Z,00040380,00000600,-000.73,-000.37,0000.14,0000.25,-000.12,-000.07,0000.08,-000.12,0000.07,23.4,02.3,0640.7,31.0
2020-03-30T01:38:00Z,00040380,00000600,0000.35,0000.25,0000.18,0000.01,-000.08,-000.22,-000.05,-000.07,-000.06,23.4,02.3,0640.7,31.0
2020-03-30T01:39:00Z,00040380,00000600,0001.32,-000.36,0000.21,-000.75,-000.25,-000.20,-000.15,0000.16,0000.08,23.4,02.3,0640.7,31.0
2020-03-30T01:40:00Z,00040380,00000600,0000.13,-000.12,0000.26,0000.11,-000.11,-000.06,0000.18,-000.16,0000.05,23.4,02.3,0640.7,31.0
2020-03-30T01:41:00Z,00040380,00000600,0000.15,0000.03,-000.33,-000.30,-000.27,-000.15,-000.11,-000.04,-000.18,23.4,02.3,0640.6,31.0
2020-03-30T01:42:00Z,00040380,00000600,0000.14,-000.38,0000.32,0000.13,0000.19,-000.37,-000.01,0000.03,0000.21,23.4,02.2,0640.7,31.0
2020-03-30T01:43:00Z,00040380,00000600,-000.34,-000.22,0000.43,-000.32,0000.02,0000.25,0000.06,0000.12,-000.19,23.4,02.3,0640.6,31.0
2020-03-30T01:44:00Z,00040380,00000600,0000.20,0000.47,0001.27,-000.16,0000.15,0000.36,0000.08,-000.05,0000.13,23.4,02.4,0640.7,31.0
2020-03-30T01:45:00Z,00040380,00000600,0000.65,0000.66,0000.77,-000.52,-000.28,-000.05,-000.08,-000.00,-000.03,23.4,02.3,0640.7,31.0
2020-03-30T01:46:00Z,00040380,00000600,0000.85,0000.56,0000.86,-000.30,0000.15,0000.06,0000.17,-000.17,-000.01,23.4,02.3,0640.6,31.0
2020-03-30T01:47:00Z,00040380,00000600,0000.54,-000.44,0000.39,0000.10,0000.02,0000.14,-000.07,0000.25,0000.05,23.4,02.3,0640.6,31.0
2020-03-30T01:48:00Z,00040380,00000600,-000.00,0000.28,0000.41,-000.80,0000.09,0000.28,-000.08,-000.12,0000.04,23.4,02.3,0640.6,31.0
2020-03-30T01:49:00Z,00040380,00000600,0000.05,-000.31,0000.13,-000.70,-000.41,-000.17,-000.03,0000.02,0000.00,23.4,02.3,0640.6,31.0
2020-03-30T01:50:00Z,00040380,00000600,0000.16,-000.39,0000.33,-000.40,-000.04,-000.24,-000.01,0000.12,-000.12,23.4,02.3,0640.6,31.0
2020-03-30T01:51:00Z,00040380,00000600,0000.70,0000.23,0000.50,-000.45,-000.47,-000.28,0000.02,0000.05,-000.05,23.4,02.3,0640.7,31.0
2020-03-30T01:52:00Z,00040380,00000600,0000.99,-000.22,0000.14,-000.63,-000.19,-000.11,0000.04,0000.01,0000.18,23.4,02.2,0640.6,31.0
2020-03-30T01:53:00Z,00040380,00000600,0000.35,-000.11,0000.20,-000.21,0000.08,-000.26,-000.09,0000.06,-000.07,23.4,02.3,0640.6,31.0
2020-03-30T01:54:00Z,00040380,00000600,0000.89,-000.23,0000.66,0000.78,-000.39,0000.13,0000.10,-000.19,-000.06,23.4,02.3,0640.6,31.0
2020-03-30T01:55:00Z,00040380,00000600,-001.20,-000.22,0000.10,0000.67,-000.33,-000.12,0000.08,0000.17,0000.25,23.5,02.3,0640.5,31.0
2020-03-30T01:56:00Z,00040380,00000600,0001.33,-000.31,-000.06,0000.69,-000.40,-000.26,-000.10,-000.09,-000.26,23.5,02.3,0640.6,31.0
2020-03-30T01:57:00Z,00040380,40000600,,,,,,,,,,23.5,02.1,0640.7,31.0
2020-03-30T01:58:00Z,00040380,60000600,,,,,,,,,,23.6,02.2,0639.7,31.0
2020-03-30T01:59:00Z,00040380,20000600,,,,,,,,,,23.7,02.2,0639.7,31.0
2020-03-30T02:00:00Z,00040380,20000600,,,,,,,,,,23.7,02.2,0639.7,31.0
2020-03-30T02:01:00Z,00040380,20000600,,,,,,,,,,23.7,02.1,0639.7,31.0
2020-03-30T02:02:00Z,00040380,20000600,,,,,,,,,,23.7,02.1,0639.7,31.0
2020-03-30T02:03:00Z,00040380,60000600,,,,,,,,,,23.7,02.1,0639.7,31.0
2020-03-30T02:04:00Z,00040380,40000600,0000.47,0000.62,-000.63,0000.92,0000.05,0000.15,-000.11,0000.15,-000.07,23.6,02.1,0640.6,31.0
2020-03-30T02:05:00Z,00040380,00000600,-000.05,0000.69,0000.60,0000.78,-000.26,0000.37,0000.06,-000.06,-000.02,23.6,02.2,0640.6,31.0
2020-03-30T02:06:00Z,00040380,00000600,0000.05,0000.10,0000.43,0000.89,-000.19,-000.02,0000.02,-000.03,0000.01,23.6,02.1,0640.7,31.0
2020-03-30T02:07:00Z,00040380,00000600,-000.37,0001.06,-000.03,0000.25,-000.04,0000.36,-000.02,-000.02,0000.07,23.6,02.1,0640.7,31.0
2020-03-30T02:08:00Z,00040380,00000600,-000.03,0000.31,-000.24,0000.80,-000.14,0000.04,-000.10,0000.06,-000.15,23.6,02.1,0640.6,31.0
2020-03-30T02:09:00Z,00040380,00000600,-000.47,0000.47,-000.02,0000.50,-000.44,-000.02,0000.09,-000.14,0000.12,23.6,02.1,0640.6,31.0
2020-03-30T02:10:00Z,00040380,00000600,-000.22,0000.15,0000.35,0000.60,-000.04,0000.25,0000.05,0000.14,-000.08,23.6,02.2,0640.6,31.0
2020-03-30T02:11:00Z,00040380,00000600,0000.14,0000.57,0000.18,-000.08,-000.41,0000.35,-000.07,-000.08,0000.23,23.6,02.2,0640.6,31.0
2020-03-30T02:12:00Z,00040380,00000600,0000.38,0000.26,0000.50,0000.89,0000.21,0000.35,0000.05,0000.12,-000.08,23.6,02.1,0640.5,31.0
2020-03-30T02:13:00Z,00040380,00000600,-000.16,0000.20,0000.00,0000.75,-000.08,0000.19,0000.10,-000.05,-000.13,23.6,02.1,0640.5,31.0
2020-03-30T02:14:00Z,00040380,00000600,-000.68,0000.47,-000.03,0000.52,0000.04,0000.23,-000.17,0000.10,-000.04,23.6,02.1,0640.5,31.0
2020-03-30T02:15:00Z,00040380,00000600,0000.22,-000.06,-000.13,-000.73,0000.14,0000.01,-000.05,-000.12,0000.16,23.6,02.0,0640.5,31.0
2020-03-30T02:16:00Z,00040380,00000600,0001.10,0000.10,0000.06,0000.74,-000.16,0000.55,0000.23,-000.01,-000.07,23.6,02.2,0640.5,31.0
2020-03-30T02:17:00Z,00040380,00000600,0000.35,0000.12,0000.73,0000.20,0000.12,0000.22,0000.02,0000.05,0000.07,23.6,02.1,0640.5,31.0
2020-03-30T02:18:00Z,00040380,00000600,0000.30,0000.09,0000.16,0001.39,-000.12,0000.04,0000.07,0000.12,0000.11,23.6,02.1,0640.5,31.0
2020-03-30T02:19:00Z,00040380,00000600,-000.53,0000.24,-000.04,-000.04,-000.12,0000.16,-000.05,-000.11,-000.07,23.6,02.1,0640.5,31.0
2020-03-30T02:20:00Z,00040380,00000600,-000.49,0000.30,-000.33,-000.08,-000.39,0000.63,0000.15,-000.01,0000.09,23.6,02.1,0640.5,31.0
2020-03-30T02:21:00Z,00040380,00000600,-000.04,0000.20,0000.05,0000.40,0000.04,0000.16,-000.19,0000.23,-000.09,23.6,02.1,0640.5,31.0
2020-03-30T02:22:00Z,00040380,00000600,-000.55,0000.42,0000.11,0000.87,0000.11,-000.15,0000.16,-000.12,-000.03,23.6,02.1,0640.5,31.0
2020-03-30T02:23:00Z,00040380,00000600,-000.69,0001.02,-000.33,0000.72,0000.53,-000.19,-000.06,-000.03,-000.00,23.6,02.1,0640.5,31.0
2020-03-30T02:24:00Z,00040380,00000600,0000.28,0000.13,0000.11,-000.28,0000.07,-000.05,0000.16,-000.00,0000.01,23.6,02.1,0640.5,31.0
2020-03-30T02:25:00Z,00040380,00000600,0000.57,0000.32,0000.09,-000.32,0000.22,0000.18,-000.12,0000.07,0000.22,23.6,02.1,0640.5,31.0
2020-03-30T02:26:00Z,00040380,00000600,-000.70,0000.07,-000.35,-000.05,0000.09,0000.34,0000.15,0000.19,-000.18,23.6,02.1,0640.5,31.0
2020-03-30T02:27:00Z,00040380,00000600,0000.04,-000.28,0000.18,0000.13,-000.08,0000.29,-000.07,-000.12,0000.12,23.6,02.1,0640.5,31.0
2020-03-30T02:28:00Z,00040380,00000600,0000.11,-000.23,-000.15,-000.42,-000.17,0000.24,-000.08,-000.05,-000.06,23.6,02.1,0640.6,31.0
2020-03-30T02:29:00Z,00040380,00000600,0000.16,-000.12,0000.09,0000.60,-000.11,0000.54,0000.10,0000.04,-000.10,23.6,02.1,0640.5,31.0
2020-03-30T02:30:00Z,00040380,00000600,0000.20,-000.07,0000.26,0001.60,-000.47,0000.32,-000.08,-000.01,0000.06,23.6,02.1,0640.6,31.0
2020-03-30T02:31:00Z,00040380,00000600,-001.08,0000.62,0000.62,0000.29,0000.08,0000.14,0000.08,0000.04,0000.08,23.6,02.0,0640.5,31.0
2020-03-30T02:32:00Z,00040380,00000600,-002.08,0000.33,0000.04,0000.17,-000.12,0000.36,0000.07,-000.10,0000.07,23.6,02.1,0640.5,31.0
2020-03-30T02:33:00Z,00040380,00000600,-000.09,0000.34,0000.54,-000.12,-000.47,0000.16,0000.03,0000.10,0000.06,23.6,02.0,0640.5,31.0
2020-03-30T02:34:00Z,00040380,00000600,0001.08,-000.15,0000.58,0000.25,0000.02,0000.24,0000.07,0000.02,-000.02,23.6,02.1,0640.5,31.0
2020-03-30T02:35:00Z,00040380,00000600,-000.29,-000.06,0000.34,0001.15,-000.08,0000.10,0000.01,0000.08,0000.04,23.6,02.0,0640.5,31.0
2020-03-30T02:36:00Z,00040380,00000600,-000.19,0000.34,-000.37,0000.37,-000.21,0000.38,-000.05,-000.12,-000.20,23.6,02.0,0640.5,31.0
2020-03-30T02:37:00Z,00040380,00000600,0000.22,0000.18,-000.17,-000.19,-000.18,-000.05,0000.12,0000.09,0000.12,23.6,02.0,0640.5,31.0
2020-03-30T02:38:00Z,00040380,00000600,-000.27,0000.18,0000.23,-000.33,-000.52,-000.03,-000.03,0000.26,-000.00,23.6,02.1,0640.5,31.0
2020-03-30T02:39:00Z,00040380,00000600,0001.79,0000.19,0000.09,-000.33,-000.32,0000.57,0000.08,-000.26,0000.05,23.6,02.0,0640.5,31.0
2020-03-30T02:40:00Z,00040380,00000600,-000.24,-000.01,-000.22,0000.41,0000.57,-000.15,-000.07,0000.19,0000.04,23.6,02.0,0640.4,31.0
2020-03-30T02:41:00Z,00040380,00000600,-000.40,0000.71,0000.55,0000.84,-000.14,-000.03,0000.02,0000.04,-000.05,23.6,02.0,0640.4,31.0
2020-03-30T02:42:00Z,00040380,00000600,-000.04,0000.28,-000.02,-000.58,-000.15,0000.27,0000.05,-000.11,-000.03,23.6,02.0,0640.4,31.0
2020-03-30T02:43:00Z,00040380,00000600,-000.07,0000.66,0000.12,0000.29,-000.05,-000.05,-000.03,0000.08,0000.06,23.6,02.1,0640.5,31.0
2020-03-30T02:44:00Z,00040380,00000600,0000.20,-000.11,0000.14,0001.42,0000.09,0000.39,-000.03,0000.11,-000.02,23.6,02.0,0640.4,31.0
2020-03-30T02:45:00Z,00040380,00000600,-000.41,0000.06,-000.01,0000.49,0000.33,0000.17,0000.05,-000.04,0000.14,23.6,02.0,0640.4,31.0
2020-03-30T02:46:00Z,00040380,00000600,0001.14,-000.44,-000.03,0000.33,0000.24,0000.47,-000.02,-000.03,-000.10,23.7,01.9,0640.4,31.0
2020-03-30T02:47:00Z,00040380,00000600,0001.08,0000.29,-000.05,0000.69,0000.08,0000.05,0000.10,-000.04,0000.04,23.7,02.0,0640.4,31.0
2020-03-30T02:48:00Z,00040380,00000600,0000.22,0000.59,-000.27,0000.48,0000.11,0000.10,-000.02,-000.09,0000.07,23.7,02.0,0640.4,31.0
2020-03-30T02:49:00Z,00040380,00000600,-000.35,0000.27,0000.35,0000.63,0000.19,0000.20,0000.07,0000.12,-000.01,23.7,01.9,0640.4,31.0
2020-03-30T02:50:00Z,00040380,00000600,-000.05,0000.70,-000.29,0000.67,-000.15,-000.02,-000.15,-000.05,-000.01,23.7,01.9,0640.4,31.0
2020-03-30T02:51:00Z,00040380,00000600,0000.74,0000.08,0000.64,0000.21,-000.15,0000.47,0000.01,-000.01,0000.04,23.7,01.9,0640.4,31.0
2020-03-30T02:52:00Z,00040380,00000600,-000.84,0000.21,-000.03,-000.29,0000.02,0000.62,0000.04,0000.12,-000.03,23.7,02.0,0640.4,31.0
2020-03-30T02:53:00Z,00040380,00000600,0001.07,0000.33,0000.67,0000.18,-000.14,0000.30,0000.05,0000.03,0000.01,23.7,01.9,0640.4,31.0
2020-03-30T02:54:00Z,00040380,00000600,0000.74,-000.22,0000.27,0000.27,-000.38,0000.23,-000.06,-000.08,-000.07,23.7,02.0,0640.4,31.0
2020-03-30T02:55:00Z,00040380,00000600,0000.00,0000.85,0000.09,0000.60,-000.00,0000.01,0000.06,0000.12,0000.20,23.7,02.0,0640.4,31.0
2020-03-30T02:56:00Z,00040380,00000600,-000.77,0000.44,0000.13,0000.70,0000.35,-000.02,-000.12,-000.09,-000.23,23.7,02.0,0640.4,31.0
2020-03-30T02:57:00Z,00040380,40000600,,,,,,,,,,23.8,01.7,0640.4,31.0
2020-03-30T02:58:00Z,00040380,60000600,,,,,,,,,,23.8,01.9,0639.6,31.0
2020-03-30T02:59:00Z,00040380,20000600,,,,,,,,,,23.9,01.9,0639.6,31.0
2020-03-30T03:00:00Z,00040380,20000600,,,,,,,,,,24.0,01.9,0639.6,31.0
2020-03-30T03:01:00Z,00040380,20000600,,,,,,,,,,24.0,01.7,0639.6,31.0
2020-03-30T03:02:00Z,00040380,20000600,,,,,,,,,,24.0,01.7,0639.6,31.0
2020-03-30T03:03:00Z,00040380,60000600,,,,,,,,,,24.0,01.7,0639.6,31.0
2020-03-30T03:04:00Z,00040380,40000600,0001.31,0000.25,-000.31,0000.62,0000.31,-000.22,0000.00,-000.03,0000.05,23.9,01.8,0640.4,31.0
2020-03-30T03:05:00Z,00040380,00000600,-000.47,0000.40,0000.08,-000.47,-000.29,0000.09,0000.09,0000.04,0000.18,23.9,01.9,0640.5,31.0
2020-03-30T03:06:00Z,00040380,00000600,-000.10,0000.18,0000.36,0000.24,0000.15,0000.22,-000.06,0000.07,-000.13,23.9,01.9,0640.5,31.0
2020-03-30T03:07:00Z,00040380,00000600,0000.12,-000.27,0000.86,0000.44,0000.45,0000.04,0000.03,-000.01,0000.14,23.8,01.8,0640.5,31.0
2020-03-30T03:08:00Z,00040380,00000600,-000.46,0000.14,-000.11,-000.72,0000.41,0000.08,-000.19,-000.10,-000.10,23.8,01.9,0640.5,31.0
2020-03-30T03:09:00Z,00040380,00000600,-000.26,0000.56,0000.07,0000.20,0000.28,-000.49,0000.20,0000.16,0000.01,23.9,01.9,0640.6,31.0
2020-03-30T03:10:00Z,00040380,00000600,0001.37,0000.31,0000.22,0000.04,0000.37,-000.18,0000.02,0000.00,0000.15,23.9,01.8,0640.4,31.0